Location: Aulus
(42.7909°N, 1.3399°E)
Time: 00:11:22
(UTC+00:00)

Cosmos 1733 - Pass Details

Date: 19 May 2025
Orbit: 375 x 381 km, 82.5° (Epoch: 18 June)

Event Time Altitude Azimuth Distance (km) Brightness Sun altitude
Rises 20:34:15 0° 4° (N) 2,305 7.1 -12.6°
Reaches altitude 10° 20:36:30 10° 19° (NNE) 1,441 5.8 -12.9°
Maximum altitude 20:39:07 24° 76° (ENE) 863 4.0 -13.3°
Enters shadow 20:39:54 22° 100° (E) 927 4.0 -13.4°
